Location: East Horndon
(51.5667°N, 0.3500°E)
Time: 06:06:15
(UTC+00:00)

H-2A R/B - Pass Details

Date: 08 November 2025
Orbit: 728 x 830 km, 98.3° (Epoch: 11 December)

Event Time Altitude Azimuth Distance (km) Brightness Sun altitude
Rises 03:23:48 0° 15° (NNE) 3,226 5.6 -34.2°
Reaches altitude 10° 03:26:08 10° 17° (NNE) 2,283 4.8 -33.9°
Enters shadow 03:27:59 23° 20° (NNE) 1,561 3.8 -33.6°
